Location: Newark
(55.4390°N, 25.0170°E)
Time: 20:00:11
(UTC+00:00)

ISS - Visible Passes

Search period start: 24 September 2022 00:00
Search period end: 04 October 2022 00:00
Orbit: 414 x 417 km, 51.6° (Epoch: 24 September)

Date Brightness Start Highest point End Pass type
(mag) Time Alt. Az. Time Alt. Az. Time Alt. Az.
24 Sep -3.2 17:47:51 10° WSW 17:51:04 43° S 17:52:18 29° SE visible
24 Sep -1.0 19:24:30 10° W 19:25:11 14° WSW 19:25:11 14° WSW visible
25 Sep -3.1 16:59:19 10° WSW 17:02:32 43° S 17:05:28 12° ESE visible
25 Sep -2.4 18:35:51 10° W 18:38:21 30° SW 18:38:21 30° SW visible
26 Sep -2.9 17:47:13 10° W 17:50:22 37° SSW 17:51:30 28° SSE visible
26 Sep -0.7 19:24:17 10° WSW 19:24:23 10° WSW 19:24:23 10° WSW visible
27 Sep -2.9 16:58:36 10° WSW 17:01:48 41° S 17:04:40 12° ESE visible
27 Sep -1.8 18:35:23 10° WSW 18:37:33 21° SW 18:37:33 21° SW visible
28 Sep -2.2 17:46:37 10° W 17:49:31 27° SSW 17:50:43 22° SSE visible
29 Sep -2.5 16:57:54 10° W 17:00:58 33° SSW 17:03:55 11° SE visible
29 Sep -1.1 18:35:23 10° WSW 18:36:48 13° SW 18:36:48 13° SW visible
30 Sep -1.5 17:46:12 10° WSW 17:48:31 17° SSW 17:50:02 13° S visible
01 Oct -1.8 16:57:16 10° W 16:59:58 22° SSW 17:02:40 10° SSE visible
03 Oct -1.0 16:57:02 10° WSW 16:58:48 14° SW 17:00:35 10° S visible
